Weather History for Syracuse, NY

Change the Weather History Date:

Sunday, September 22, 2013

  Actual Average Record
Temperature  
Mean Temperature 54 °F 60 °F  
Max Temperature 59 °F 70 °F 92 °F (1931)
Min Temperature 48 °F 50 °F 35 °F (1963)
Degree Days  
Heating Degree Days 11 6  
Month to date heating degree days 107 77  
Since 1 July heating degree days 113 103  
Cooling Degree Days 0 1  
Month to date cooling degree days 68 47  
Year to date cooling degree days 711 560  
Growing Degree Days 5 (Base 50)    
Moisture  
Dew Point 47 °F    
Average Humidity 71    
Maximum Humidity 86    
Minimum Humidity 55    
Precipitation  
Precipitation 0.01 in 0.13 in 1.58 in (1938)
Month to date precipitation 3.20 2.67  
Year to date precipitation 29.78 27.26  
Snow  
Snow 0.00 in 0.00 in 0.00 in (2002)
Month to date snowfall 0.0 0.0  
Since 1 July snowfall 0.0 0.0  
Since 1 September snowfall 0.0 0.0  
Snow Depth 0.00 in    
Sea Level Pressure  
Sea Level Pressure 29.81 in    
Wind  
Wind Speed 12 mph (West)    
Max Wind Speed 22 mph    
Max Gust Speed 28 mph    
Visibility 10 miles    
Events Rain    
T = Trace of Precipitation, MM = Missing Value Source: NWS Daily Summary

Daily Weather History Graph

Daily Weather History Graph

Search for Another Location

Airport:

Trip Planner

Search our weather history database for the weather conditions in past years. The results will help you decide how hot, cold, wet, or windy it might be!

Date:

Astronomy

Sep. 22, 2013 Rise Set
Actual Time 6:51 AM EDT 7:01 PM EDT
Civil Twilight 6:23 AM EDT 7:29 PM EDT
Nautical Twilight 5:50 AM EDT 8:02 PM EDT
Astronomical Twilight 5:16 AM EDT 8:36 PM EDT
Moon 8:43 PM EDT (9/22) 10:16 AM EDT (9/22)
Length of Visible Light 13h 06m
Length of Day
12h 09m
Waning Gibbous, 89% of the Moon is Illuminated
Sep 22
Waning Gibbous
Sep 26
Last Quarter
Oct 4
New
Oct 11
First Quarter
Oct 18
Full

Hourly Weather History & Observations

Time (EDT) Temp. Dew Point Humidity Pressure Visibility Wind Dir Wind Speed Gust Speed Precip Events Conditions
12:13 AM 60.8 °F 57.2 °F 88% 29.67 in 6.0 mi West 18.4 mph 23.0 mph 0.02 in Rain Light Rain
12:23 AM 59.0 °F 55.4 °F 88% 29.68 in 10.0 mi West 11.5 mph - 0.02 in   Mostly Cloudy
12:32 AM 59.0 °F 55.4 °F 88% 29.68 in 10.0 mi West 10.4 mph - 0.02 in   Overcast
12:45 AM 57.2 °F 55.4 °F 94% 29.68 in 10.0 mi West 9.2 mph - 0.02 in Rain Light Rain
12:54 AM 57.9 °F 55.0 °F 90% 29.67 in 10.0 mi West 11.5 mph - 0.02 in Rain Light Rain
1:08 AM 57.2 °F 55.4 °F 94% 29.69 in 10.0 mi West 11.5 mph - 0.00 in Rain Light Rain
1:17 AM 57.2 °F 53.6 °F 88% 29.69 in 10.0 mi West 11.5 mph - 0.00 in   Mostly Cloudy
1:54 AM 57.0 °F 54.0 °F 89% 29.69 in 10.0 mi WSW 17.3 mph 23.0 mph 0.00 in   Mostly Cloudy
2:37 AM 55.4 °F 51.8 °F 88% 29.70 in 10.0 mi WSW 13.8 mph - N/A   Mostly Cloudy
2:54 AM 55.0 °F 51.1 °F 86% 29.69 in 10.0 mi WSW 13.8 mph - N/A   Scattered Clouds
3:54 AM 54.0 °F 48.9 °F 83% 29.70 in 10.0 mi WSW 11.5 mph - N/A   Overcast
4:54 AM 54.0 °F 48.9 °F 83% 29.72 in 10.0 mi WSW 15.0 mph - N/A   Overcast
5:54 AM 53.1 °F 48.9 °F 86% 29.73 in 10.0 mi WSW 12.7 mph - 0.00 in   Mostly Cloudy
6:54 AM 53.1 °F 48.9 °F 86% 29.75 in 7.0 mi WSW 16.1 mph - 0.00 in Rain Light Rain
7:54 AM 53.1 °F 50.0 °F 89% 29.78 in 10.0 mi West 12.7 mph - 0.01 in   Mostly Cloudy
8:54 AM 54.0 °F 51.1 °F 90% 29.80 in 10.0 mi WSW 8.1 mph - 0.00 in   Light Drizzle
9:54 AM 57.0 °F 48.9 °F 74% 29.81 in 10.0 mi WNW 9.2 mph - 0.00 in   Mostly Cloudy
10:54 AM 55.9 °F 46.0 °F 69% 29.83 in 10.0 mi NW 10.4 mph - 0.00 in   Overcast
11:54 AM 57.0 °F 42.1 °F 57% 29.84 in 10.0 mi WNW 10.4 mph 25.3 mph N/A   Overcast
12:54 PM 57.9 °F 42.1 °F 56% 29.85 in 10.0 mi WNW 18.4 mph 27.6 mph N/A   Mostly Cloudy
1:54 PM 55.9 °F 39.9 °F 55% 29.86 in 10.0 mi WNW 17.3 mph 24.2 mph N/A   Mostly Cloudy
2:54 PM 55.9 °F 39.9 °F 55% 29.87 in 10.0 mi West 18.4 mph 24.2 mph N/A   Mostly Cloudy
3:54 PM 55.9 °F 39.9 °F 55% 29.88 in 10.0 mi West 19.6 mph 24.2 mph N/A   Overcast
4:54 PM 54.0 °F 42.1 °F 64% 29.89 in 10.0 mi WNW 10.4 mph - N/A   Overcast
5:54 PM 53.1 °F 42.1 °F 66% 29.91 in 10.0 mi West 9.2 mph - N/A   Overcast
6:54 PM 53.1 °F 43.0 °F 69% 29.91 in 10.0 mi West 8.1 mph - N/A   Overcast
7:54 PM 52.0 °F 43.0 °F 71% 29.94 in 10.0 mi West 8.1 mph - N/A   Overcast
8:54 PM 52.0 °F 42.1 °F 69% 29.96 in 10.0 mi West 6.9 mph - N/A   Overcast
9:54 PM 52.0 °F 41.0 °F 66% 29.98 in 10.0 mi WNW 8.1 mph - N/A   Mostly Cloudy
10:54 PM 51.1 °F 43.0 °F 74% 29.99 in 10.0 mi North 5.8 mph - 0.00 in   Light Drizzle
11:54 PM 48.9 °F 42.1 °F 77% 30.00 in 10.0 mi North 5.8 mph - 0.00 in   Mostly Cloudy